Location: Helsinki
(60.1699°N, 24.9384°E)
Time: 19:47:10
(UTC+02:00)

Transit 4A - Pass Details

Date: 31 October 2020
Orbit: 862 x 982 km, 66.8° (Epoch: 29 November)

Event Time Altitude Azimuth Distance (km) Brightness Sun altitude
Rises 00:47:05 0° 312° (NW) 3,699 11.3 -43.3°
Enters shadow 00:48:28 - 307° (NW) 3,270 10.9 -43.3°
Reaches altitude 10° 00:50:23 10° 296° (WNW) 2,745 - -43.2°
Maximum altitude 00:54:43 19° 253° (WSW) 2,126 - -43.1°
Drops below altitude 10° 00:59:01 10° 210° (SSW) 2,708 - -42.9°
Sets 01:02:16 0° 194° (SSW) 3,634 - -42.8°
